Farmington, NM

12:43 AM MST on December 04, 2016 (GMT -0700)
Four Corners Regional

Weather History for KFMN - February, 2014

Change the Weather History Date:

Sunday, February 2, 2014

  Actual Average Record
Temperature  
Mean Temperature 24 °F -  
Max Temperature 37 °F 44 °F 58 °F (1986)
Min Temperature 10 °F 20 °F 3 °F (1985)
Degree Days  
Heating Degree Days 42    
Moisture  
Dew Point 16 °F    
Average Humidity 68    
Maximum Humidity 92    
Minimum Humidity 34    
Precipitation  
Precipitation 0.00 in - - ()
Sea Level Pressure  
Sea Level Pressure 30.12 in    
Wind  
Wind Speed 5 mph (ENE)    
Max Wind Speed 9 mph    
Max Gust Speed -    
Visibility 10 miles    
Events      
Averages and records for this station are not official NWS values.
T = Trace of Precipitation, MM = Missing Value Source: NWS Daily Summary

Daily Weather History Graph

Daily Weather History Graph

Search for Another Location

Airport or City:

Trip Planner

Search our weather history database for the weather conditions in past years. The results will help you decide how hot, cold, wet, or windy it might be!

Date:

Astronomy

Feb. 02, 2014 Rise Set
Actual Time 7:14 AM MST 5:39 PM MST
Civil Twilight 6:46 AM MST 6:06 PM MST
Nautical Twilight 6:15 AM MST 6:37 PM MST
Astronomical Twilight 5:45 AM MST 7:08 PM MST
Moon 8:48 AM MST (2/2) 9:19 PM MST (2/2)
Length of Visible Light 11h 20m
Length of Day
10h 25m
Waxing Crescent, 12% of the Moon is Illuminated
Feb 2
Waxing Crescent
Feb 6
First Quarter
Feb 14
Full
Feb 22
Last Quarter
Mar 1
New

Hourly Weather History & Observations

Time (MST) Temp. Windchill Dew Point Humidity Pressure Visibility Wind Dir Wind Speed Gust Speed Precip Events Conditions
12:53 AM 21.9 °F 17.2 °F 18.0 °F 85% 30.09 in 10.0 mi North 3.5 mph - N/A   Clear
1:53 AM 18.0 °F - 15.1 °F 88% 30.10 in 10.0 mi Calm Calm - N/A   Clear
2:53 AM 16.0 °F 8.8 °F 12.0 °F 84% 30.13 in 10.0 mi NE 4.6 mph - N/A   Clear
3:53 AM 15.1 °F 7.7 °F 10.9 °F 84% 30.14 in 10.0 mi North 4.6 mph - N/A   Clear
4:53 AM 14.0 °F 5.1 °F 10.0 °F 84% 30.14 in 10.0 mi NE 5.8 mph - N/A   Clear
5:53 AM 12.0 °F 5.9 °F 8.1 °F 84% 30.18 in 10.0 mi NNE 3.5 mph - N/A   Clear
6:53 AM 10.9 °F 2.9 °F 7.0 °F 84% 30.21 in 10.0 mi ENE 4.6 mph - N/A   Clear
7:53 AM 14.0 °F 5.1 °F 10.0 °F 84% 30.22 in 10.0 mi ENE 5.8 mph - N/A   Partly Cloudy
8:05 AM 15.1 °F 5.2 °F 10.9 °F 84% 30.09 in 8.0 mi ENE 6.9 mph - N/A   Mostly Cloudy
8:22 AM 18.0 °F 11.1 °F 16.0 °F 92% 30.09 in 5.0 mi ENE 4.6 mph - N/A   Overcast
8:53 AM 21.0 °F 14.6 °F 19.0 °F 92% 30.22 in 9.0 mi East 4.6 mph - N/A   Overcast
9:53 AM 23.0 °F 17.0 °F 21.0 °F 92% 30.22 in 10.0 mi SE 4.6 mph - N/A   Overcast
10:45 AM 26.1 °F 17.6 °F 21.0 °F 81% 30.11 in 10.0 mi East 8.1 mph - N/A   Scattered Clouds
10:53 AM 27.0 °F 20.5 °F 21.0 °F 78% 30.21 in 10.0 mi ESE 5.8 mph - N/A   Partly Cloudy
11:53 AM 30.0 °F 24.1 °F 21.9 °F 72% 30.18 in 10.0 mi ENE 5.8 mph - N/A   Clear
12:53 PM 33.1 °F 27.7 °F 19.0 °F 56% 30.11 in 10.0 mi East 5.8 mph - N/A   Clear
1:53 PM 34.0 °F 27.2 °F 18.0 °F 52% 30.10 in 10.0 mi East 8.1 mph - N/A   Clear
2:53 PM 36.0 °F 30.3 °F 15.1 °F 43% 30.06 in 10.0 mi ESE 6.9 mph - N/A   Clear
3:53 PM 37.0 °F - 16.0 °F 42% 30.08 in 10.0 mi Calm Calm - N/A   Clear
4:53 PM 35.1 °F 30.1 °F 17.1 °F 48% 30.08 in 10.0 mi NNE 5.8 mph - N/A   Clear
5:53 PM 32.0 °F 25.6 °F 18.0 °F 56% 30.09 in 10.0 mi NE 6.9 mph - N/A   Clear
6:53 PM 30.0 °F 24.1 °F 19.0 °F 64% 30.11 in 10.0 mi NE 5.8 mph - N/A   Scattered Clouds
7:53 PM 32.0 °F 24.2 °F 16.0 °F 52% 30.09 in 10.0 mi ENE 9.2 mph - N/A   Scattered Clouds
8:53 PM 30.9 °F 25.2 °F 18.0 °F 59% 30.06 in 10.0 mi East 5.8 mph - N/A   Partly Cloudy
9:53 PM 30.9 °F 26.2 °F 19.0 °F 61% 30.06 in 10.0 mi East 4.6 mph - N/A   Overcast
10:53 PM 30.9 °F 26.2 °F 19.0 °F 61% 30.03 in 10.0 mi East 4.6 mph - N/A   Overcast
11:53 PM 30.9 °F 25.2 °F 17.1 °F 57% 30.00 in 10.0 mi ENE 5.8 mph - N/A   Overcast